Clarksburg, WV

6:49 AM EST on November 13, 2019 (GMT -0500)
Benedum

Weather History for KCKB - September, 2019

Change the Weather History Date:

Tuesday, September 3, 2019

  Actual Average Record
Temperature  
Mean Temperature 73 °F -  
Max Temperature 87 °F 83 °F 102 °F (1953)
Min Temperature 60 °F 58 °F 43 °F (1946)
Cooling Degree Days 8    
Growing Degree Days 23 (Base 50)    
Moisture  
Dew Point 60 °F    
Average Humidity 79    
Maximum Humidity 94    
Minimum Humidity 37    
Precipitation  
Precipitation 0.00 in - - ()
Sea Level Pressure  
Sea Level Pressure 30.05 in    
Wind  
Wind Speed 1 mph ()    
Max Wind Speed 8 mph    
Max Gust Speed -    
Visibility 4.5 miles    
Events Fog    
Averages and records for this station are not official NWS values.
T = Trace of Precipitation, MM = Missing Value Source: Averaged Metar Reports

Daily Weather History Graph

Daily Weather History Graph

Search for Another Location

Airport or City:

Astronomy

Sep. 03, 2019 Rise Set
Actual Time 6:51 AM EDT 7:48 PM EDT
Civil Twilight 6:23 AM EDT 8:16 PM EDT
Nautical Twilight 5:51 AM EDT 8:48 PM EDT
Astronomical Twilight 5:17 AM EDT 9:22 PM EDT
Moon 11:40 AM EDT (9/3) 10:46 PM EDT (9/3)
Length of Visible Light 13h 52m
Length of Day
12h 57m
Waxing Crescent, 24% of the Moon is Illuminated
Sep 3
Waxing Crescent
Sep 5
First Quarter
Sep 14
Full
Sep 21
Last Quarter
Sep 28
New

Hourly Weather History & Observations

Time (EDT) Temp. Heat Index Dew Point Humidity Pressure Visibility Wind Dir Wind Speed Gust Speed Precip Events Conditions
12:49 AM 64.4 °F - 60.8 °F 88% 30.11 in 1.8 mi Calm Calm - N/A   Clear
12:53 AM 64.0 °F - 61.0 °F 90% 30.07 in 1.0 mi Calm Calm - N/A   Clear
1:01 AM 64.9 °F - 61.0 °F 87% 30.11 in 3.0 mi Calm Calm - N/A   Clear
1:33 AM 64.0 °F - 60.1 °F 87% 30.10 in 1.8 mi Calm Calm - N/A   Clear
1:49 AM 62.6 °F - 60.8 °F 94% 30.10 in 0.5 mi Calm Calm - N/A Fog Fog
1:50 AM 64.0 °F - 60.1 °F 87% 30.06 in 0.8 mi Calm Calm - N/A   Mist
1:55 AM 63.0 °F - 60.1 °F 90% 30.10 in 3.0 mi Calm Calm - N/A   Partly Cloudy
2:09 AM 63.0 °F - 59.0 °F 87% 30.10 in 0.8 mi Calm Calm - N/A   Clear
2:17 AM 62.1 °F - 59.0 °F 90% 30.10 in 0.5 mi South 3.5 mph - N/A Fog Fog
2:53 AM 62.1 °F - 59.0 °F 90% 30.06 in 0.2 mi Calm Calm - N/A Fog Fog
3:41 AM 61.0 °F - 59.0 °F 93% 30.08 in 0.2 mi Calm Calm - N/A Fog Fog
3:53 AM 61.0 °F - 59.0 °F 93% 30.04 in 0.8 mi Calm Calm - N/A   Mist
3:56 AM 62.1 °F - 59.0 °F 90% 30.08 in 1.2 mi Calm Calm - N/A   Scattered Clouds
4:01 AM 61.0 °F - 57.9 °F 90% 30.08 in 3.0 mi Calm Calm - N/A   Scattered Clouds
4:15 AM 61.0 °F - 57.0 °F 87% 30.08 in 1.8 mi Calm Calm - N/A   Clear
4:24 AM 61.0 °F - 57.9 °F 90% 30.08 in 0.8 mi Calm Calm - N/A   Clear
4:33 AM 61.0 °F - 57.9 °F 90% 30.08 in 1.0 mi Calm Calm - N/A   Mist
4:39 AM 60.1 °F - 57.9 °F 93% 30.08 in 0.5 mi Calm Calm - N/A Fog Fog
4:53 AM 61.0 °F - 57.9 °F 90% 30.04 in 0.2 mi Calm Calm - N/A Fog Fog
5:53 AM 60.1 °F - 57.0 °F 90% 30.05 in 0.2 mi Calm Calm - N/A Fog Fog
6:53 AM 60.1 °F - 57.0 °F 90% 30.06 in 0.2 mi Calm Calm - N/A Fog Fog
7:20 AM 61.0 °F - 57.9 °F 90% 30.11 in 0.2 mi Calm Calm - N/A Fog Fog
7:53 AM 62.1 °F - 59.0 °F 90% 30.08 in 0.2 mi Calm Calm - N/A Fog Fog
8:41 AM 64.0 °F - 61.0 °F 90% 30.12 in 1.8 mi Calm Calm - N/A   Overcast
8:46 AM 64.0 °F - 61.0 °F 90% 30.12 in 3.0 mi Calm Calm - N/A   Overcast
8:53 AM 64.9 °F - 62.1 °F 90% 30.09 in 4.0 mi Calm Calm - N/A   Mostly Cloudy
9:09 AM 66.0 °F - 62.1 °F 87% 30.12 in 2.0 mi Calm Calm - N/A   Mostly Cloudy
9:15 AM 64.9 °F - 62.1 °F 90% 30.12 in 4.0 mi Calm Calm - N/A   Mostly Cloudy
9:35 AM 68.0 °F - 64.0 °F 87% 30.12 in 10.0 mi Calm Calm - N/A   Scattered Clouds
9:53 AM 70.0 °F - 64.0 °F 81% 30.08 in 10.0 mi South 3.5 mph - N/A   Clear
10:53 AM 75.9 °F - 64.9 °F 69% 30.06 in 10.0 mi Variable 3.5 mph - N/A   Clear
11:53 AM 79.0 °F - 63.0 °F 58% 30.06 in 10.0 mi West 4.6 mph - N/A   Clear
12:53 PM 79.0 °F - 62.1 °F 56% 30.05 in 10.0 mi Calm Calm - N/A   Clear
1:53 PM 82.9 °F 83.3 °F 61.0 °F 47% 30.03 in 10.0 mi SSW 6.9 mph - N/A   Clear
2:53 PM 84.0 °F 84.4 °F 61.0 °F 46% 30.01 in 10.0 mi SSW 5.8 mph - N/A   Clear
3:53 PM 86.0 °F 85.7 °F 60.1 °F 41% 30.00 in 10.0 mi NW 3.5 mph - N/A   Clear
4:53 PM 86.0 °F 84.9 °F 57.0 °F 37% 29.96 in 10.0 mi Variable 4.6 mph - N/A   Clear
5:53 PM 84.0 °F 83.8 °F 59.0 °F 43% 29.94 in 10.0 mi SSW 6.9 mph - N/A   Clear
6:53 PM 82.0 °F 82.1 °F 59.0 °F 45% 29.92 in 10.0 mi South 8.1 mph - N/A   Clear
7:53 PM 78.1 °F - 60.1 °F 54% 29.93 in 10.0 mi SSW 4.6 mph - N/A   Clear
8:53 PM 73.0 °F - 62.1 °F 68% 29.94 in 10.0 mi Calm Calm - N/A   Clear
9:53 PM 70.0 °F - 63.0 °F 78% 29.95 in 10.0 mi Calm Calm - N/A   Clear
10:53 PM 69.1 °F - 63.0 °F 81% 29.95 in 10.0 mi Calm Calm - N/A   Clear
11:53 PM 68.0 °F - 61.0 °F 78% 29.95 in 10.0 mi Calm Calm - N/A   Clear